Hourly Data Report for January 13, 2017

TORONTO CITY
ONTARIO

43°40'00.000" N
79°24'00.000" W
112.50 m
6158355
71508
XTO

Download Data

Hourly Data (January 2017)
Hourly Data Report for January 13, 2017
TIME
LST
Temp Definition
°C
Dew Point Definition
°C
Rel Hum Definition
%
Precip. Amount Definition
mm

Wind Dir Definition
10's deg

Wind Spd Definition
km/h
Visibility Definition
km
Stn Press Definition
kPa
Hmdx Definition


Wind Chill Definition


Weather Definition


00:00 -0.5 -5.9 67 0.0 LegendMM LegendMM   101.01     LegendNANA
01:00 -1.0 -6.2 67 0.0 LegendMM LegendMM   101.07     LegendNANA
02:00 -0.8 -6.8 64 0.0 LegendMM LegendMM   101.20     LegendNANA
03:00 -1.0 -8.4 57 0.0 LegendMM LegendMM   101.39     LegendNANA
04:00 -2.2 -9.8 56 0.0 LegendMM LegendMM   101.57     LegendNANA
05:00 -2.8 -10.2 57 0.0 LegendMM LegendMM   101.70     LegendNANA
06:00 -2.8 -9.6 59 0.0 LegendMM LegendMM   101.86     LegendNANA
07:00 -3.1 -11.6 52 0.0 LegendMM LegendMM   102.00     LegendNANA
08:00 -3.8 -10.6 59 0.0 LegendMM LegendMM   102.13     LegendNANA
09:00 -3.6 -11.1 56 0.0 LegendMM LegendMM   102.26     LegendNANA
10:00 -2.6 -11.3 51 0.0 LegendMM LegendMM   102.39     LegendNANA
11:00 -2.5 -11.4 51 0.0 LegendMM LegendMM   102.47     LegendNANA
12:00 -2.1 -10.1 54 0.0 LegendMM LegendMM   102.47     LegendNANA
13:00 -1.9 -9.5 56 0.0 LegendMM LegendMM   102.46     LegendNANA
14:00 -2.5 -10.1 56 0.0 LegendMM LegendMM   102.48     LegendNANA
15:00 -2.9 -9.9 59 0.0 LegendMM LegendMM   102.55     LegendNANA
16:00 -2.9 -12.1 49 0.0 LegendMM LegendMM   102.62     LegendNANA
17:00 -4.1 -9.6 66 0.0 LegendMM LegendMM   102.69     LegendNANA
18:00 -5.1 -10.9 64 0.0 LegendMM LegendMM   102.78     LegendNANA
19:00 -5.4 -10.8 66 0.0 LegendMM LegendMM   102.81     LegendNANA
20:00 -5.7 -10.9 67 0.0 LegendMM LegendMM   102.82     LegendNANA
21:00 -6.0 -11.1 67 0.0 LegendMM LegendMM   102.83     LegendNANA
22:00 -6.2 -11.7 65 0.0 LegendMM LegendMM   102.79     LegendNANA
23:00 -6.6 -11.6 67 0.0 LegendMM LegendMM   102.72     LegendNANA

Notes on Data Quality.

Legend

  • E = Estimated
  • M = Missing
  • NA = Not Available*
  • [empty] = Indicates an unobserved value
Date modified: